Weather History for EGBB - February, 2013

Change the Weather History Date:

Tuesday, February 26, 2013

  Actual Average Record
Temperature  
Mean Temperature 37 °F -  
Max Temperature 39 °F 47 °F 53 °F (2003)
Min Temperature 35 °F 35 °F 23 °F (2004)
Degree Days  
Heating Degree Days 28    
Moisture  
Dew Point 35 °F    
Average Humidity 94    
Maximum Humidity 100    
Minimum Humidity 87    
Precipitation  
Precipitation 0.00 in 0.07 in - ()
Sea Level Pressure  
Sea Level Pressure 30.54 in    
Wind  
Wind Speed 10 mph ()    
Max Wind Speed 15 mph    
Max Gust Speed -    
Visibility 3.1 miles    
Events Rain    
Averages and records for this station are not official NWS values.
T = Trace of Precipitation, MM = Missing Value Source: Averaged Metar Reports

Daily Weather History Graph

Daily Weather History Graph

Search for Another Location

Airport or City:

Trip Planner

Search our weather history database for the weather conditions in past years. The results will help you decide how hot, cold, wet, or windy it might be!

Date:

Astronomy

Feb. 26, 2013 Rise Set
Actual Time 6:59 AM GMT 5:40 PM GMT
Civil Twilight 6:25 AM GMT 6:15 PM GMT
Nautical Twilight 5:46 AM GMT 6:54 PM GMT
Astronomical Twilight 5:06 AM GMT 7:34 PM GMT
Moon 6:56 PM GMT (2/26) 6:43 AM GMT (2/26)
Length of Visible Light 11h 49m
Length of Day
10h 40m
Full, 100% of the Moon is Illuminated
Feb 26
Full
Mar 4
Last Quarter
Mar 11
New
Mar 19
First Quarter
Mar 27
Full

Hourly Weather History & Observations

Time (GMT) Temp. Windchill Dew Point Humidity Pressure Visibility Wind Dir Wind Speed Gust Speed Precip Events Conditions
12:20 AM 37.4 °F 28.9 °F 33.8 °F 87% 30.45 in 6.2 mi NNE 13.8 mph - N/A   Overcast
12:50 AM 37.4 °F 28.5 °F 33.8 °F 87% 30.45 in 5.6 mi NNE 15.0 mph - N/A   Mostly Cloudy
1:20 AM 37.4 °F 28.9 °F 33.8 °F 87% 30.45 in 5.6 mi NE 13.8 mph - N/A   Mostly Cloudy
1:50 AM 37.4 °F 29.3 °F 33.8 °F 87% 30.48 in 3.7 mi NNE 12.7 mph - N/A   Mostly Cloudy
2:20 AM 35.6 °F 27.5 °F 33.8 °F 93% 30.48 in 3.1 mi NNE 11.5 mph - N/A   Mostly Cloudy
2:50 AM 35.6 °F 27.5 °F 33.8 °F 93% 30.45 in 4.3 mi NNE 11.5 mph - N/A   Overcast
3:50 AM 35.6 °F 28.0 °F 33.8 °F 93% 30.45 in 2.5 mi NNE 10.4 mph - N/A   Haze
4:20 AM 35.6 °F 27.5 °F 35.6 °F 100% 30.45 in - NE 11.5 mph - N/A   Haze
4:50 AM 35.6 °F 27.1 °F 33.8 °F 93% 30.48 in - NNE 12.7 mph - N/A   Haze
5:20 AM 35.6 °F 27.5 °F 35.6 °F 100% 30.48 in 3.1 mi NNE 11.5 mph - N/A   Overcast
5:50 AM 35.6 °F 28.0 °F 35.6 °F 100% 30.48 in - NNE 10.4 mph - N/A   Light Drizzle
6:20 AM 35.6 °F 27.1 °F 35.6 °F 100% 30.48 in - NNE 12.7 mph - N/A   Light Drizzle
6:50 AM 35.6 °F 27.5 °F 35.6 °F 100% 30.48 in 1.9 mi NNE 11.5 mph - N/A   Overcast
7:20 AM 35.6 °F 28.0 °F 35.6 °F 100% 30.51 in 1.2 mi NNE 10.4 mph - N/A   Overcast
7:50 AM 35.6 °F 27.5 °F 35.6 °F 100% 30.51 in 1.6 mi NE 11.5 mph - N/A   Light Drizzle
8:20 AM 37.4 °F 30.3 °F 35.6 °F 93% 30.51 in - NE 10.4 mph - N/A   Light Drizzle
8:50 AM 37.4 °F 30.3 °F 35.6 °F 93% 30.51 in - NE 10.4 mph - N/A   Light Drizzle
9:20 AM 37.4 °F 30.8 °F 35.6 °F 93% 30.51 in 1.9 mi NE 9.2 mph - N/A Rain Light Rain
9:50 AM 37.4 °F 29.8 °F 35.6 °F 93% 30.54 in - NE 11.5 mph - N/A   Mostly Cloudy
10:20 AM 37.4 °F 29.8 °F 35.6 °F 93% 30.54 in - NE 11.5 mph - N/A   Mostly Cloudy
10:50 AM 37.4 °F 29.3 °F 35.6 °F 93% 30.54 in 2.5 mi NE 12.7 mph - N/A   Mostly Cloudy
11:50 AM 37.4 °F 29.8 °F 37.4 °F 100% 30.57 in 2.8 mi NE 11.5 mph - N/A   Mostly Cloudy
12:20 PM 37.4 °F 29.8 °F 37.4 °F 100% 30.57 in - NE 11.5 mph - N/A   Mostly Cloudy
12:50 PM 39.2 °F 32.0 °F 37.4 °F 93% 30.57 in - NNE 11.5 mph - N/A   Haze
1:20 PM 39.2 °F 32.5 °F 37.4 °F 93% 30.54 in - NNE 10.4 mph - N/A   Haze
1:50 PM 39.2 °F 33.0 °F 37.4 °F 93% 30.54 in - NNE 9.2 mph - N/A   Haze
2:20 PM 39.2 °F 33.0 °F 37.4 °F 93% 30.57 in - NE 9.2 mph - N/A   Haze
2:50 PM 39.2 °F 33.6 °F 35.6 °F 87% 30.57 in 3.1 mi NE 8.1 mph - N/A   Haze
3:20 PM 39.2 °F 33.0 °F 37.4 °F 93% 30.57 in - NE 9.2 mph - N/A   Haze
3:50 PM 39.2 °F 33.0 °F 35.6 °F 87% 30.57 in - NE 9.2 mph - N/A   Haze
4:20 PM 37.4 °F 30.3 °F 35.6 °F 93% 30.57 in - NE 10.4 mph - N/A   Haze
4:50 PM 37.4 °F 31.4 °F 35.6 °F 93% 30.57 in - NE 8.1 mph - N/A   Haze
5:20 PM 37.4 °F 29.8 °F 35.6 °F 93% 30.57 in - NE 11.5 mph - N/A   Haze
5:50 PM 37.4 °F 31.4 °F 35.6 °F 93% 30.57 in - NE 8.1 mph - N/A   Overcast
6:20 PM 37.4 °F 32.1 °F 35.6 °F 93% 30.57 in - NE 6.9 mph - N/A   Haze
6:50 PM 37.4 °F 29.8 °F 35.6 °F 93% 30.60 in 2.5 mi NNE 11.5 mph - N/A   Haze
7:20 PM 37.4 °F 30.8 °F 35.6 °F 93% 30.60 in 2.2 mi NNE 9.2 mph - N/A   Overcast
7:50 PM 37.4 °F 30.8 °F 35.6 °F 93% 30.60 in 1.9 mi NE 9.2 mph - N/A   Overcast
8:20 PM 37.4 °F 30.8 °F 35.6 °F 93% 30.60 in 2.2 mi NE 9.2 mph - N/A   Overcast
8:50 PM 35.6 °F 29.2 °F 35.6 °F 100% 30.63 in - NE 8.1 mph - N/A   Overcast
9:20 PM 35.6 °F 28.6 °F 35.6 °F 100% 30.63 in - NE 9.2 mph - N/A   Overcast
9:50 PM 35.6 °F 27.5 °F 35.6 °F 100% 30.63 in - NNE 11.5 mph - N/A   Overcast
10:20 PM 35.6 °F 27.5 °F 33.8 °F 93% 30.63 in 3.1 mi NNE 11.5 mph - N/A   Overcast
10:50 PM 35.6 °F 28.6 °F 33.8 °F 93% 30.63 in 3.1 mi NE 9.2 mph - N/A   Overcast
11:20 PM 35.6 °F 28.0 °F 33.8 °F 93% 30.60 in 3.1 mi NE 10.4 mph - N/A   Overcast
11:50 PM 35.6 °F 29.2 °F 33.8 °F 93% 30.60 in 3.7 mi NE 8.1 mph - N/A   Overcast